This demonstration page uses our WeatherBlox Daily Observations layout. Learn more.

Left ArrowRight Arrow

34.16533, -84.80231

Hourly Observations for August 26, 2020

Temp ( °F °C ) Dew Point ( °F °C ) Humidity (%) Winds ( mph kmh ) Pressure ( in mb ) Visibility ( mi km ) Precip ( " mm )
12:53 am 00:53 Mostly Cloudy 76 24.4 73 22.8 91 91 Calm 30.09 1019 8 13 0.00 0.00
1:19 am 01:19 Cloudy 75 23.9 73 22.8 94 94 Calm 30.10 1019 7 11 0.00 0.00
1:53 am 01:53 Mostly Cloudy 75 23.9 73 22.8 94 94 Calm 30.09 1019 7 11 0.00 0.00
2:16 am 02:16 Mostly Cloudy 75 23.9 73 22.8 94 94 Calm 30.09 1019 7 11 0.00 0.00
2:53 am 02:53 Cloudy with Mist and Fog 75 23.9 73 22.8 94 94 Calm 30.08 1019 6 10 0.00 0.00
3:01 am 03:01 Cloudy 75 23.9 72 22.2 90 90 Calm 30.09 1019 7 11 0.00 0.00
3:10 am 03:10 Cloudy with Mist and Fog 75 23.9 73 22.8 94 94 Calm 30.09 1019 6 10 0.00 0.00
3:53 am 03:53 Cloudy 75 23.9 73 22.8 94 94 Calm 30.07 1018 7 11 0.00 0.00
4:06 am 04:06 Cloudy 76 24.4 73 22.8 91 91 Calm 30.08 1019 7 11 0.00 0.00
4:41 am 04:41 Cloudy with Mist and Fog 75 23.9 73 22.8 94 94 Calm 30.08 1019 6 10 0.00 0.00
4:53 am 04:53 Cloudy with Mist and Fog 76 24.4 73 22.8 91 91 NNE 3 6 30.07 1018 6 10 0.00 0.00
5:53 am 05:53 Cloudy with Mist and Fog 75 23.9 73 22.8 94 94 Calm 30.06 1018 4 6 0.00 0.00
6:53 am 06:53 Cloudy with Mist and Fog 76 24.4 73 22.8 91 91 NNE 3 6 30.07 1018 6 10 0.00 0.00
7:35 am 07:35 Cloudy with Mist and Fog 76 24.4 73 22.8 91 91 Calm 30.09 1019 6 10 0.00 0.00
7:46 am 07:46 Cloudy with Mist and Fog 76 24.4 73 22.8 91 91 Calm 30.09 1019 5 8 0.00 0.00
7:53 am 07:53 Cloudy with Mist and Fog 76 24.4 73 22.8 91 91 Calm 30.08 1019 6 10 0.00 0.00
8:42 am 08:42 Cloudy 77 25 73 22.8 88 88 Calm 30.10 1019 7 11 0.00 0.00
8:53 am 08:53 Cloudy 78 25.6 74 23.3 87 87 Calm 30.09 1019 8 13 0.00 0.00
9:10 am 09:10 Cloudy 78 25.6 74 23.3 87 87 Calm 30.10 1019 8 13 0.00 0.00
9:35 am 09:35 Mostly Cloudy 80 26.7 74 23.3 82 82 NE 3 6 30.09 1019 9 14 0.00 0.00
9:53 am 09:53 Mostly Cloudy 81 27.2 74 23.3 79 79 Calm 30.10 1019 9 14 0.00 0.00
10:14 am 10:14 Partly Cloudy 81 27.2 74 23.3 79 79 Calm 30.10 1019 8 13 0.00 0.00
10:27 am 10:27 Mostly Cloudy 82 27.8 74 23.3 77 77 Calm 30.10 1019 8 13 0.00 0.00
10:53 am 10:53 Mostly Cloudy 82 27.8 75 23.9 79 79 SSE 5 7 30.10 1019 7 11 0.00 0.00
11:53 am 11:53 Mostly Cloudy 85 29.4 76 24.4 75 75 Calm 30.09 1019 8 13 0.00 0.00
12:17 pm 12:17 Mostly Cloudy 86 30 76 24.4 72 72 ESE 3 6 30.09 1019 7 11 0.00 0.00
12:53 pm 12:53 Cloudy 86 30 76 24.4 72 72 Calm 30.09 1019 7 11 0.00 0.00
1:53 pm 13:53 Sunny 86 30 76 24.4 72 72 Calm 30.08 1019 8 13 0.00 0.00
2:04 pm 14:04 Sunny with Nearby Thunderstorms 86 30 77 25 75 75 VRB 3 6 30.08 1019 7 11 0.00 0.00
2:37 pm 14:37 Partly Cloudy 86 30 77 25 75 75 Calm 30.06 1018 7 11 0.00 0.00
2:45 pm 14:45 Mostly Cloudy 85 29.4 77 25 77 77 Calm 30.06 1018 7 11 0.00 0.00
2:53 pm 14:53 Mostly Cloudy with Haze 85 29.4 76 24.4 75 75 Calm 30.06 1018 6 10 0.00 0.00
3:02 pm 15:02 Partly Cloudy 86 30 77 25 75 75 Calm 30.06 1018 7 11 0.00 0.00
7:53 pm 19:53 Hazy 81 27.2 76 24.4 85 85 Calm 30.03 1017 6 10 0.00 0.00
8:53 pm 20:53 Clear with Mist and Fog 79 26.1 76 24.4 90 90 SSE 3 6 30.04 1017 6 10 0.00 0.00
9:53 pm 21:53 Clear 78 25.6 75 23.9 90 90 Calm 30.05 1018 7 11 0.00 0.00
10:53 pm 22:53 Clear 76 24.4 74 23.3 94 94 Calm 30.06 1018 7 11 0.00 0.00
11:53 pm 23:53 Clear 76 24.4 73 22.8 91 91 Calm 30.04 1017 8 13 0.00 0.00

Powered by AerisWeather